Sacramento, CA

9:45 AM PST on December 18, 2017 (GMT -0800)
Sacramento Executive

Weather History for KSAC - April, 2012

Change the Weather History Date:

Thursday, April 26, 2012

  Actual Average Record
Temperature  
Mean Temperature 61 °F -  
Max Temperature 66 °F 74 °F 95 °F (2004)
Min Temperature 56 °F 48 °F 37 °F (1975)
Degree Days  
Heating Degree Days 4    
Month to date heating degree days 183  
Cooling Degree Days 0    
Month to date cooling degree days 29  
Year to date cooling degree days 29  
Growing Degree Days 6 (Base 50)    
Moisture  
Dew Point 50 °F    
Average Humidity 72    
Maximum Humidity 100    
Minimum Humidity 44    
Precipitation  
Precipitation 0.03 in 0.03 in 0.84 in (1960)
Month to date precipitation 2.42 1.04  
Year to date precipitation 9.83 10.90  
Since 1 July precipitation 12.18  
Sea Level Pressure  
Sea Level Pressure 29.92 in    
Wind  
Wind Speed 8 mph (SW)    
Max Wind Speed 22 mph    
Max Gust Speed 29 mph    
Visibility 10 miles    
Events Rain    
T = Trace of Precipitation, MM = Missing Value Source: NWS Daily Summary

Daily Weather History Graph

Daily Weather History Graph

Search for Another Location

Airport or City:

Trip Planner

Search our weather history database for the weather conditions in past years. The results will help you decide how hot, cold, wet, or windy it might be!

Date:

Astronomy

Apr. 26, 2012 Rise Set
Actual Time 6:14 AM PDT 7:53 PM PDT
Civil Twilight 5:46 AM PDT 8:21 PM PDT
Nautical Twilight 5:12 AM PDT 8:56 PM PDT
Astronomical Twilight 4:35 AM PDT 9:32 PM PDT
Moon 10:00 AM PDT (4/26) 12:01 AM PDT (4/26)
Length of Visible Light 14h 35m
Length of Day
13h 39m
Waxing Crescent, 25% of the Moon is Illuminated
Apr 26
Waxing Crescent
Apr 29
First Quarter
May 5
Full
May 12
Last Quarter
May 20
New

Hourly Weather History & Observations

Time (PDT) Temp. Dew Point Humidity Pressure Visibility Wind Dir Wind Speed Gust Speed Precip Events Conditions
12:53 AM 57.9 °F 55.9 °F 93% 29.78 in 9.0 mi SSE 3.5 mph - 0.02 in Rain Light Rain
1:33 AM 57.2 °F 55.4 °F 94% 29.77 in 10.0 mi SE 6.9 mph - 0.02 in Rain Light Rain
1:53 AM 57.2 °F 55.4 °F 94% 29.77 in 10.0 mi SSE 4.6 mph - N/A   Overcast
2:53 AM 57.9 °F 57.0 °F 97% 29.79 in 10.0 mi South 5.8 mph - N/A   Overcast
3:17 AM 57.2 °F 55.4 °F 94% 29.79 in 2.5 mi SSW 6.9 mph - 0.01 in Rain Light Rain
3:30 AM 57.2 °F 55.4 °F 94% 29.79 in 5.0 mi SSW 8.1 mph - 0.02 in Rain Light Rain
3:39 AM 57.2 °F 55.4 °F 94% 29.79 in 10.0 mi SSW 6.9 mph - 0.02 in   Overcast
3:53 AM 57.0 °F 55.0 °F 93% 29.79 in 10.0 mi SSW 8.1 mph - 0.02 in   Overcast
4:53 AM 57.0 °F 55.0 °F 93% 29.81 in 10.0 mi SW 8.1 mph - 0.00 in   Overcast
5:25 AM 57.2 °F 55.4 °F 94% 29.81 in 10.0 mi SW 8.1 mph - N/A   Overcast
5:53 AM 57.0 °F 54.0 °F 89% 29.82 in 10.0 mi SW 9.2 mph - N/A   Overcast
6:53 AM 57.0 °F 55.0 °F 93% 29.83 in 10.0 mi SW 6.9 mph - N/A   Overcast
7:19 AM 57.2 °F 51.8 °F 82% 29.83 in 10.0 mi SSW 11.5 mph - N/A   Overcast
7:53 AM 57.0 °F 51.1 °F 81% 29.85 in 10.0 mi SW 9.2 mph 18.4 mph N/A   Mostly Cloudy
8:53 AM 59.0 °F 52.0 °F 78% 29.87 in 10.0 mi SW 13.8 mph 20.7 mph N/A   Partly Cloudy
9:31 AM 60.8 °F 51.8 °F 72% 29.88 in 10.0 mi SW 11.5 mph 21.9 mph N/A   Mostly Cloudy
9:53 AM 59.0 °F 52.0 °F 78% 29.90 in 10.0 mi WSW 10.4 mph - N/A   Overcast
10:20 AM 62.6 °F 51.8 °F 68% 29.90 in 10.0 mi SW 15.0 mph 20.7 mph N/A   Scattered Clouds
10:53 AM 61.0 °F 52.0 °F 72% 29.91 in 10.0 mi SW 17.3 mph 21.9 mph N/A   Mostly Cloudy
11:53 AM 62.1 °F 51.1 °F 67% 29.95 in 10.0 mi SSW 12.7 mph 24.2 mph N/A   Mostly Cloudy
12:12 PM 60.8 °F 50.0 °F 68% 29.95 in 10.0 mi SSW 9.2 mph 23.0 mph N/A   Mostly Cloudy
12:53 PM 63.0 °F 48.9 °F 60% 29.96 in 10.0 mi WSW 15.0 mph 23.0 mph N/A   Mostly Cloudy
1:53 PM 64.9 °F 46.0 °F 50% 29.99 in 10.0 mi WSW 15.0 mph - N/A   Clear
2:53 PM 64.9 °F 45.0 °F 48% 30.00 in 10.0 mi SW 15.0 mph 20.7 mph N/A   Clear
3:53 PM 64.0 °F 43.0 °F 46% 30.03 in 10.0 mi WSW 15.0 mph 26.5 mph N/A   Clear
4:53 PM 64.0 °F 43.0 °F 46% 30.05 in 10.0 mi SW 15.0 mph 23.0 mph N/A   Clear
5:53 PM 63.0 °F 42.1 °F 46% 30.06 in 10.0 mi SW 17.3 mph 24.2 mph N/A   Clear
6:53 PM 60.1 °F 42.1 °F 51% 30.09 in 10.0 mi SW 15.0 mph 26.5 mph N/A   Clear
7:53 PM 57.0 °F 43.0 °F 59% 30.10 in 10.0 mi SW 11.5 mph 17.3 mph N/A   Clear
8:53 PM 53.6 °F 42.8 °F 67% 30.13 in 10.0 mi SW 6.9 mph - N/A   Clear
9:53 PM 51.1 °F 44.1 °F 77% 30.15 in 10.0 mi Calm Calm - N/A   Clear
10:53 PM 48.9 °F 44.1 °F 83% 30.16 in 10.0 mi Calm Calm - N/A   Clear
11:53 PM 46.9 °F 44.1 °F 90% 30.18 in 10.0 mi Calm Calm - N/A   Clear